Location: Newark
(35.6799°N, 139.7636°E)
Time: 00:10:42
(UTC+00:00)

Transit 2A - Pass Details

Date: 08 December 2019
Orbit: 601 x 957 km, 66.7° (Epoch: 17 January)

Event Time Altitude Azimuth Distance (km) Brightness Sun altitude
Rises 08:20:59 0° 317° (NW) 2,899 9.3 -10.8°
Reaches altitude 10° 08:23:33 10° 303° (WNW) 2,023 8.7 -11.3°
Maximum altitude 08:27:08 23° 250° (WSW) 1,390 8.4 -11.9°
Drops below altitude 10° 08:30:57 10° 198° (SSW) 2,151 8.9 -12.7°
Sets 08:33:46 0° 185° (S) 3,131 9.5 -13.2°
